30.06.2024;16:00;89
30.06.2024;15:00;93
30.06.2024;14:00;97
30.06.2024;13:00;88
30.06.2024;12:00;84
30.06.2024;11:00;82
30.06.2024;10:00;80
30.06.2024;09:00;78
30.06.2024;08:00;77
30.06.2024;07:00;75
30.06.2024;06:00;55
30.06.2024;05:00;36
30.06.2024;04:00;29
30.06.2024;03:00;28
30.06.2024;02:00;34
30.06.2024;01:00;39
30.06.2024;00:00;47
29.06.2024;23:00;56
29.06.2024;22:00;61
29.06.2024;21:00;79
29.06.2024;20:00;99
29.06.2024;19:00;95
29.06.2024;18:00;92
29.06.2024;17:00;98
29.06.2024;16:00;105
29.06.2024;15:00;103
29.06.2024;14:00;98
29.06.2024;13:00;97
29.06.2024;12:00;94
29.06.2024;11:00;82
29.06.2024;10:00;63
29.06.2024;09:00;53
29.06.2024;08:00;29
29.06.2024;07:00;6
29.06.2024;06:00;5
29.06.2024;05:00;12
29.06.2024;04:00;10
29.06.2024;03:00;19
29.06.2024;02:00;22
29.06.2024;01:00;28
29.06.2024;00:00;46
28.06.2024;23:00;60
28.06.2024;22:00;67
28.06.2024;21:00;78
28.06.2024;20:00;99
28.06.2024;19:00;107
28.06.2024;18:00;110
28.06.2024;17:00;110
